Tracking 35051 objects as of 17-Aug-2026
HD Live streaming from Space Station
objects crossing your sky now

NOAA 16 DEB

Track NOAA 16 DEB now!
10-day predictions


NORAD ID: 41079
Int'l Code: 2000-055AN
Launch date: September 21, 2000
Source: United States (US)
Launch site: AIR FORCE WESTERN TEST RANGE (AFWTR)

Note: This is SATELLITE DEBRIS
Your satellite tracking list
Your tracking list is empty




NASA's NSSDC Master Catalog

Two Line Element Set (TLE):
1 41079U 00055AN  26229.28602310  .00000261  00000-0  25244-3 0  9993
2 41079  99.1151 169.7772 0141619 223.8115 135.1736 13.84248618540912
Source of the keplerian elements: AFSPC